Flag for Turkey Weather past 2 weeks in Istanbul, Turkey

Now
46 °F

Sprinkles. Partly cloudy.


Feels Like: 42 °F
Forecast: 43 / 55 °F
Wind: 9 mph from Northwest

Location: Istanbul Ataturk Airport

Current Time: Feb 28, 2015 at 3:04:44 AM

Latest Report: Feb 28, 2015 at 2:20 AM


Visibility: N/A

Pressure: 29.80 "Hg

Humidity: 93%

Dew point: 45 °F

Location of IstanbulLocation

Historic Weather in Istanbul — Graph

°F

Istanbul temperature yesterday

Maximum temperature yesterday: 66 °F (at 12:50 PM)
Minimum temperature yesterday: 46 °F (at 2:50 AM)
Average temperature yesterday: 54 °F

Past Weeks' High & Low Weather Summary

 TemperatureHumidityPressure
High66 °F (Feb 27, 12:50 PM)100% (Feb 17, 1:50 PM)30.45 "Hg (Feb 17, 1:50 PM)
Low28 °F (Feb 18, 12:50 AM)44% (Feb 22, 12:20 PM)29.74 "Hg (Feb 24, 12:50 PM)
Average44 °F76%30.10 "Hg
* Reported Feb 13 1:20 AM — Feb 28 1:50 AM, Istanbul, Weather by CustomWeather, © 2015

Note: Actual official high and low records may vary slightly from our data, if they occured in-between our weather recording intervals... More about our weather records

Advertising

Istanbul weather history for previous 24 hours

 ConditionsComfort  
Time TempWeatherWind HumidityBarometerVisibility
1:50 AM
Sat, Feb 28
46 °FPartly cloudy.8 mph93%29.80 "HgN/A
1:20 AM46 °FPartly cloudy.9 mph93%29.77 "HgN/A
12:50 AM48 °FSprinkles. Partly cloudy.9 mph87%29.80 "HgN/A
12:20 AM48 °FSprinkles. Partly cloudy.6 mph87%29.80 "HgN/A
11:50 PM
Fri, Feb 27
48 °FClear.15 mph87%29.74 "Hg10 mi
11:20 PM46 °FClear.20 mph93%29.74 "Hg10 mi
10:50 PM48 °FClear.21 mph87%29.74 "Hg10 mi
10:20 PM48 °FClear.18 mph82%29.74 "Hg10 mi
9:50 PM48 °FPassing clouds.13 mph82%29.77 "HgN/A
9:20 PM50 °FPassing clouds.10 mph82%29.77 "HgN/A
8:50 PM48 °FClear.14 mph82%29.74 "Hg10 mi
8:20 PM48 °FClear.15 mph82%29.77 "Hg10 mi
7:50 PM48 °FClear.15 mph82%29.77 "Hg10 mi
7:20 PM54 °FPassing clouds.13 mph63%29.77 "HgN/A
6:50 PM52 °FPassing clouds.12 mph72%29.77 "HgN/A
6:20 PM52 °FClear.14 mph77%29.77 "Hg10 mi
5:50 PM52 °FSunny.17 mph77%29.80 "Hg10 mi
5:20 PM54 °FSunny.15 mph72%29.80 "Hg10 mi
4:50 PM55 °FSunny.14 mph67%29.83 "Hg10 mi
4:20 PM59 °FSunny.13 mph55%29.83 "Hg10 mi
3:50 PM61 °FPassing clouds.9 mph52%29.83 "HgN/A
3:20 PM55 °FSunny.8 mph67%29.86 "Hg10 mi
2:50 PM61 °FPassing clouds.7 mph55%29.86 "HgN/A
2:20 PM64 °FPassing clouds.7 mph46%29.83 "HgN/A
1:50 PM64 °FPassing clouds.8 mph49%29.86 "HgN/A
1:20 PM64 °FPassing clouds.7 mph46%29.86 "HgN/A
12:50 PM66 °FPassing clouds.7 mph46%29.89 "HgN/A
12:20 PM64 °FPassing clouds.7 mph46%29.89 "HgN/A
11:50 AM64 °FSunny.5 mph49%29.92 "Hg10 mi
11:20 AM63 °FPassing clouds.3 mph52%29.95 "HgN/A
10:50 AM59 °FPassing clouds.5 mph59%29.95 "HgN/A
10:20 AM59 °FPassing clouds.7 mph55%29.95 "HgN/A
9:50 AM59 °FPassing clouds.5 mph55%29.98 "HgN/A
9:20 AM59 °FPassing clouds.5 mph51%29.98 "HgN/A
8:50 AM59 °FPassing clouds.5 mph51%30.01 "HgN/A
8:20 AM59 °FPassing clouds.7 mph51%30.01 "HgN/A
7:50 AM55 °FPassing clouds.7 mph59%30.01 "HgN/A
7:20 AM54 °FPassing clouds.7 mph63%30.01 "HgN/A
6:50 AM48 °FSunny.7 mph76%30.01 "Hg10 mi
6:20 AM48 °FClear.7 mph76%30.04 "Hg10 mi
5:20 AM46 °FClear.3 mph82%30.04 "Hg10 mi
4:50 AM52 °FPassing clouds.5 mph67%30.04 "HgN/A
4:20 AM46 °FClear.2 mph87%30.04 "Hg10 mi
3:50 AM46 °FClear.3 mph82%30.04 "Hg4 mi
3:20 AM46 °FClear.3 mph87%30.07 "Hg4 mi
Weather by CustomWeather, © 2015

See weather overviewHow to use our weather pages